ECMWFFLT1_850_thetae_132.txt.gz
Theta_e
333 333 332 332 331 331 332 333 333 332 332 332 331 331 331 331 330 329 327 324 320 318 317 315 314 313 312 310 306 304 303 303 303 303 303 303 302 302 302 302 301 301 301 302 305 309 315 313 307 305 301 299 298 298 299 299 298 298 298 298 299 299 300
333 333 331 331 331 332 332 333 333 332 331 331 331 331 331 330 329 326 323 320 317 316 315 314 312 312 310 306 304 303 303 303 303 303 302 302 302 302 301 301 301 301 301 301 300 303 309 311 310 309 307 304 303 299 298 298 298 299 299 298 298 299 299
333 332 331 331 332 332 332 332 332 331 330 330 330 330 330 329 327 323 320 317 316 315 313 312 312 310 306 303 303 303 302 303 302 302 303 302 302 301 301 301 301 301 300 300 300 301 306 310 310 309 308 309 308 304 301 300 301 302 302 302 301 301 301
331 330 330 332 333 332 332 332 331 331 330 329 330 330 328 327 324 320 317 315 314 313 312 311 309 306 303 302 302 302 302 302 302 302 302 302 301 301 301 301 301 300 300 300 300 301 304 308 310 309 307 308 308 305 304 304 304 304 303 303 303 303 303
331 330 330 332 333 332 332 332 331 330 330 329 329 329 326 324 321 317 315 313 312 311 311 309 306 303 302 302 302 302 302 302 302 302 301 301 301 301 301 300 300 300 300 299 299 299 300 303 307 309 307 308 308 307 305 305 304 303 302 302 303 303 302
332 332 332 332 333 332 332 331 330 330 329 329 328 327 324 320 317 315 313 312 311 310 308 306 303 302 302 301 301 301 302 301 301 301 301 301 301 301 300 300 299 299 299 299 299 299 299 299 303 307 308 308 308 307 306 304 303 302 302 302 302 301 301
332 332 333 333 332 332 331 331 330 330 329 328 326 324 321 317 314 313 311 311 310 308 306 303 302 301 301 301 301 301 301 301 301 301 301 301 300 300 300 299 299 299 299 299 299 298 299 298 299 303 307 309 307 306 306 304 303 302 302 302 301 300 300
332 333 333 333 332 331 330 330 330 329 328 326 323 321 317 314 312 311 310 309 308 306 303 302 301 301 301 300 300 301 301 300 300 300 300 300 300 299 299 299 299 299 298 298 298 298 298 298 297 299 303 307 307 306 306 305 303 302 301 301 301 299 298
333 333 333 332 331 330 330 330 329 329 328 324 319 318 315 312 311 310 309 307 305 303 302 301 301 300 300 300 300 300 300 300 300 300 299 299 299 299 299 299 298 298 298 298 298 298 297 297 297 297 299 302 305 306 306 305 303 301 300 300 300 298 297
332 332 332 331 331 330 330 330 329 329 327 321 316 315 313 311 310 309 307 305 303 302 301 300 300 300 300 300 300 300 300 300 299 299 299 298 299 299 298 298 298 298 298 297 297 297 297 297 297 297 296 297 301 304 305 306 303 301 299 298 298 297 296
332 331 331 331 331 330 330 329 329 328 326 318 313 313 311 310 309 307 305 303 301 301 300 300 300 299 300 300 300 300 299 299 299 298 298 298 298 298 298 298 297 297 297 297 297 297 297 297 296 297 296 296 298 300 302 305 304 300 299 298 297 297 296
332 331 331 331 331 331 330 329 328 327 325 318 311 311 310 309 308 305 303 301 300 300 300 299 299 299 299 300 299 299 299 298 299 298 298 298 298 298 297 297 297 297 297 296 296 296 296 297 296 296 296 296 296 297 299 303 304 302 300 299 298 297 296
332 331 331 331 331 330 329 329 327 326 325 318 311 310 309 307 306 304 302 300 300 300 299 299 299 299 299 299 299 299 298 298 298 298 298 298 297 297 297 297 297 297 296 296 296 296 296 297 297 297 296 296 297 296 297 300 303 302 300 299 300 299 297
331 331 331 330 330 330 328 328 327 325 324 318 310 309 308 306 305 302 300 300 299 299 299 299 299 299 299 299 298 298 298 298 298 297 297 297 297 296 296 296 296 296 296 296 296 296 297 296 296 297 297 296 297 296 296 298 300 302 300 299 299 299 298
331 331 331 330 330 329 327 327 326 325 324 317 310 309 308 305 303 301 299 299 299 299 299 299 299 299 299 298 298 298 298 297 297 297 297 297 296 296 296 296 296 296 296 296 296 296 296 296 296 296 297 296 296 296 296 297 299 300 301 300 299 299 298
331 331 331 330 330 328 326 326 325 325 324 317 309 308 307 304 302 300 299 299 298 298 299 298 298 298 298 298 298 298 297 297 297 297 296 296 296 296 296 296 296 296 296 296 296 296 296 296 296 296 296 296 296 296 296 297 298 300 301 301 301 300 299
331 330 330 330 329 327 326 326 326 325 324 317 309 307 306 303 301 299 299 299 298 298 298 298 298 298 298 298 297 297 297 297 297 296 296 296 296 296 295 295 296 296 296 296 296 296 296 296 296 296 296 297 296 296 297 298 299 300 301 302 301 301 300
330 329 330 330 328 326 326 326 325 325 323 316 309 307 304 301 300 299 299 298 298 298 298 298 298 298 298 297 297 297 297 296 296 296 296 296 296 295 295 295 296 296 296 296 296 296 296 297 296 296 296 297 297 297 297 298 298 300 301 302 301 300 300
328 328 330 329 327 326 326 326 325 324 321 315 308 306 303 300 299 299 298 298 298 298 298 298 298 298 297 297 297 296 296 296 296 295 295 295 295 295 295 295 296 296 296 296 296 296 297 297 296 296 296 296 296 296 297 297 298 300 301 301 300 300 300
328 329 329 327 326 326 326 326 324 322 319 314 308 305 302 300 299 299 298 298 298 298 298 298 298 298 297 297 296 296 296 296 295 295 295 295 295 295 295 296 296 296 296 296 297 297 297 297 296 296 296 296 296 296 297 297 298 299 301 301 300 300 300
328 329 328 326 326 326 326 324 323 321 317 312 307 304 301 299 299 299 298 298 298 298 298 298 298 297 297 296 296 296 296 295 295 295 295 295 295 295 295 296 296 296 296 297 297 297 297 296 296 295 296 296 296 296 297 297 298 299 300 300 300 300 299
329 328 327 326 327 326 324 323 321 319 315 310 305 302 300 299 298 298 298 298 298 298 298 298 297 297 296 296 296 295 295 295 295 295 295 295 295 295 296 296 296 296 297 297 297 297 296 296 296 296 296 296 296 296 296 297 298 299 300 300 300 299 299
328 327 326 327 326 324 322 321 319 316 314 309 304 301 300 299 298 298 298 298 298 298 298 298 297 297 296 296 295 295 295 295 295 295 295 295 295 295 296 296 296 296 297 297 297 297 296 296 296 296 296 296 296 296 295 296 296 297 299 300 299 299 299
327 326 326 326 324 322 320 319 317 315 312 308 302 300 299 299 298 298 298 298 298 298 298 298 297 297 296 296 295 295 295 295 295 295 295 295 295 295 295 295 296 296 297 297 297 296 297 297 296 296 296 296 296 296 295 295 295 295 297 299 299 298 298
327 326 325 324 322 320 319 317 316 314 310 306 301 299 299 299 298 298 298 297 298 298 297 297 297 296 296 296 295 295 295 295 295 295 295 295 295 295 295 295 295 296 296 296 296 296 296 296 297 296 296 296 296 296 295 295 295 294 295 297 298 298 297
326 326 324 322 320 319 317 316 315 313 309 304 300 299 299 299 298 298 298 298 298 298 297 297 296 296 295 295 295 295 295 295 294 295 295 295 295 295 294 295 295 296 296 296 296 296 295 296 296 296 296 296 296 296 296 295 295 294 294 295 296 295 295
326 325 322 321 320 318 316 316 314 312 308 303 299 299 300 299 299 298 297 298 298 297 297 297 296 295 295 295 295 295 295 294 294 294 294 294 295 295 295 295 295 295 296 296 296 296 296 296 296 296 296 296 295 295 296 295 295 295 295 294 293 293 292
325 323 321 320 318 316 316 315 313 311 307 302 298 298 299 299 299 298 297 298 298 297 297 297 296 295 295 295 295 295 295 294 294 294 294 294 295 295 295 295 295 295 295 295 296 296 296 296 296 296 296 296 296 296 296 295 295 295 295 295 294 293 292
324 322 321 319 317 316 315 314 312 310 306 301 298 298 300 299 299 298 298 298 298 298 297 296 295 295 295 295 295 294 294 294 294 294 294 294 294 294 295 295 295 295 295 296 296 296 296 296 296 296 296 297 297 297 295 295 295 294 295 295 295 295 294
323 322 321 318 317 316 315 313 310 308 303 299 297 299 300 300 299 298 298 298 297 297 297 296 295 295 295 294 294 294 294 294 294 294 294 294 294 294 295 295 296 295 295 296 296 296 296 296 296 296 296 297 297 297 295 294 294 293 294 294 294 294 295
323 322 319 317 317 316 314 312 309 305 300 297 297 299 300 300 298 298 297 297 297 297 297 296 295 295 295 295 294 294 295 295 294 293 294 294 294 294 295 295 296 295 295 296 296 296 296 296 296 296 296 296 296 296 295 294 294 293 293 293 293 293 294
322 321 319 317 317 316 313 310 306 301 298 297 297 298 299 298 298 298 298 298 297 296 296 296 295 295 295 294 294 295 296 296 294 293 294 294 294 294 294 295 295 295 296 295 296 296 296 296 296 296 296 296 296 295 294 294 294 293 293 294 294 295 295
319 319 317 316 316 315 312 308 303 299 296 296 297 298 298 297 297 297 298 298 297 296 296 295 295 295 295 294 294 295 297 296 294 293 294 295 295 294 294 295 295 295 295 295 295 296 296 296 296 296 296 296 295 295 294 293 293 293 295 296 296 296 296
318 317 316 316 315 312 309 306 302 298 296 296 296 297 297 297 297 298 298 297 297 297 296 296 295 295 294 294 294 294 296 296 296 295 295 296 297 296 296 296 295 294 295 296 295 296 296 296 296 296 296 296 295 294 294 293 293 295 296 296 296 296 295
318 316 315 314 312 310 307 304 301 298 297 297 297 297 296 297 299 299 298 297 297 297 297 297 295 294 294 294 294 294 295 296 296 297 298 298 298 298 297 296 295 294 295 295 295 295 296 296 296 296 296 295 295 294 293 293 294 296 297 296 296 296 296
317 315 314 312 310 308 306 303 300 299 298 297 297 296 297 299 300 300 298 298 298 298 298 297 297 295 294 294 294 294 294 295 294 296 298 299 298 298 297 295 294 294 295 295 295 295 295 296 296 296 295 295 294 293 293 294 295 296 296 296 296 297 297
316 314 313 311 309 308 306 303 301 300 298 297 296 297 298 301 301 301 300 300 300 299 298 298 298 297 295 294 294 294 294 294 293 294 297 299 299 298 296 294 293 294 294 294 295 295 295 296 295 295 295 295 294 293 294 295 296 296 296 296 297 297 297

ECMWFFLT1_850_thetae_135.txt.gz
Theta_e
335 335 335 334 333 331 330 331 334 334 334 333 332 332 331 330 331 329 329 328 325 322 316 314 314 313 312 310 305 304 304 304 305 305 304 304 303 303 303 303 302 302 304 310 317 319 318 315 313 308 305 304 304 301 300 301 302 303 303 301 301 302 302
334 334 334 334 331 330 330 331 333 334 333 332 331 331 330 330 330 328 326 325 321 317 315 313 313 313 309 306 304 304 304 303 304 303 303 303 303 303 303 302 303 303 303 303 309 314 316 314 314 313 312 312 312 307 301 303 306 306 305 305 304 304 305
334 333 332 332 331 330 331 332 333 333 332 331 329 328 330 331 329 326 323 321 317 314 313 312 312 309 305 303 303 303 303 303 303 303 303 303 302 303 303 303 307 309 309 307 308 313 315 314 312 313 312 312 313 310 306 306 307 306 305 306 305 305 305
333 333 331 331 330 330 332 333 333 332 330 329 329 329 330 330 327 323 320 316 313 313 312 312 309 305 303 303 303 303 303 303 303 302 302 302 302 302 302 302 304 306 306 306 307 311 314 315 313 311 310 311 310 309 308 307 306 305 305 305 304 303 304
333 332 331 331 330 330 332 333 332 332 329 329 329 330 329 328 324 319 316 313 312 312 311 309 306 303 303 303 303 303 302 302 302 302 302 302 302 302 301 301 301 300 301 301 302 305 309 313 314 312 310 311 311 309 307 306 304 304 305 304 303 303 303
333 331 330 330 331 331 331 332 332 331 330 329 329 329 328 325 320 315 313 312 311 311 309 305 303 303 303 302 302 302 302 302 302 302 302 302 301 301 301 300 300 300 300 300 300 300 303 307 311 313 311 311 310 309 307 305 304 304 304 304 302 302 303
331 330 330 330 332 332 332 332 331 330 330 330 329 328 325 319 315 313 312 311 310 308 305 303 302 302 302 302 302 302 302 301 301 301 301 301 301 301 301 300 300 300 299 299 299 300 300 302 306 311 312 311 310 309 307 305 304 304 303 304 302 302 302
330 331 331 332 333 332 331 332 330 330 329 329 328 326 321 316 313 312 310 309 308 305 303 302 302 302 302 302 302 301 301 301 301 301 301 301 300 300 300 300 299 299 299 299 299 299 299 299 302 306 310 312 310 309 308 305 304 304 303 303 302 301 301
331 332 332 333 333 332 331 331 330 329 329 327 326 324 319 315 312 310 309 307 305 303 302 301 301 301 301 301 301 301 301 301 300 301 300 300 300 300 300 299 299 299 299 299 299 299 299 299 300 302 305 309 310 310 309 306 304 304 303 303 303 301 300
331 332 333 333 333 331 330 330 329 329 328 325 323 321 317 313 311 309 307 305 303 301 301 301 301 301 301 301 301 301 301 301 300 300 300 300 299 299 299 299 299 299 299 299 299 299 299 299 300 300 301 304 307 309 310 308 304 304 303 303 303 301 299
332 332 333 333 332 330 330 330 329 329 328 323 319 316 313 311 309 308 306 303 302 301 301 301 301 301 300 300 301 300 300 300 300 300 300 299 299 299 299 299 299 299 298 299 299 299 298 299 301 302 300 299 302 305 308 309 306 303 303 303 303 302 300
332 332 333 332 331 329 329 329 328 328 328 321 315 314 312 310 308 306 304 302 301 301 301 301 301 300 300 300 300 300 300 300 299 299 299 299 299 299 298 298 298 298 298 298 298 298 298 299 302 304 302 299 298 301 305 308 307 305 304 303 303 303 301
332 332 332 330 330 330 329 329 328 328 326 319 313 312 310 308 307 304 302 301 300 300 300 300 300 300 300 300 300 300 299 299 299 299 299 298 298 298 298 299 299 298 299 299 299 299 299 300 300 301 301 300 299 299 302 306 307 306 305 305 305 304 303
332 332 332 330 330 330 329 329 328 328 325 318 312 311 309 307 305 303 301 300 300 300 300 300 300 299 300 300 299 299 299 299 298 298 299 298 298 298 298 298 299 298 298 299 300 301 301 302 301 300 299 299 299 299 300 303 306 306 306 305 305 305 303
332 331 331 330 330 329 329 329 327 327 325 316 311 310 307 306 304 302 300 300 300 300 299 299 300 299 299 299 299 299 298 298 298 298 298 298 298 298 298 298 298 298 298 298 299 300 301 302 301 299 299 299 299 299 299 301 304 306 306 306 305 304 303
331 331 330 330 330 329 329 328 326 326 323 314 309 309 306 305 303 300 300 299 299 299 299 299 299 299 299 299 299 299 298 298 298 298 298 298 298 298 298 298 298 298 298 298 298 299 299 300 300 299 299 299 299 299 299 301 304 305 305 306 305 304 303
331 331 330 330 329 328 328 327 326 326 322 313 308 308 306 304 302 300 300 299 299 299 299 299 299 299 299 299 298 298 298 297 298 298 298 298 297 298 298 298 298 298 298 298 298 299 299 299 299 299 300 301 301 301 301 303 304 305 305 305 304 303 303
330 330 330 329 329 328 326 326 326 325 323 316 309 308 305 303 301 300 300 299 299 299 299 299 299 298 298 298 298 298 298 298 298 299 299 298 298 298 297 298 298 299 298 298 298 298 298 298 298 298 299 301 302 302 302 304 304 304 304 304 304 303 302
330 331 330 329 328 327 325 326 325 324 324 319 311 307 305 303 301 300 299 299 299 298 299 298 298 298 298 298 298 298 298 298 298 298 298 298 298 298 298 297 298 298 298 298 298 298 298 298 298 298 298 298 299 300 303 304 303 304 304 303 303 302 302
330 330 329 328 328 327 326 326 324 322 323 321 311 306 306 303 301 301 300 299 299 298 298 298 298 298 298 297 298 298 298 298 297 297 298 297 297 297 297 297 298 298 298 298 298 298 298 298 298 298 297 297 297 299 302 303 302 303 304 303 302 302 301
330 329 328 328 328 327 325 325 323 323 324 320 311 307 306 302 301 302 301 300 300 300 298 298 298 297 297 298 297 297 297 297 297 298 297 298 297 297 297 297 297 298 298 298 298 298 298 298 297 297 297 297 296 297 300 302 302 302 303 303 302 301 301
329 328 328 328 327 326 325 324 323 324 323 318 309 307 306 302 301 302 301 301 301 299 298 298 298 297 297 297 297 297 297 297 297 297 297 297 297 297 297 297 297 298 298 298 298 298 298 297 297 297 297 297 296 296 297 299 300 301 302 302 301 301 300
329 328 328 328 327 325 324 324 324 324 322 315 309 308 306 303 302 302 302 303 301 298 298 299 298 298 298 297 297 297 297 297 297 297 297 297 296 297 296 297 297 298 298 298 298 297 297 297 297 297 296 296 296 296 296 296 297 298 301 302 301 300 300
329 328 327 327 326 325 324 325 324 322 319 314 309 308 307 304 303 302 302 302 300 298 299 298 297 297 297 297 297 297 297 297 297 297 297 297 296 296 296 296 297 297 297 298 298 297 297 297 296 296 296 296 296 295 295 295 295 295 298 301 301 300 299
328 328 328 327 326 325 324 324 322 319 316 312 309 308 305 303 302 302 303 301 299 299 298 297 297 297 297 297 298 298 298 297 297 298 298 297 297 297 296 296 297 297 297 298 298 297 297 297 296 296 296 296 295 295 295 295 294 294 295 298 300 299 298
329 328 327 326 326 325 323 322 320 317 315 312 309 306 305 303 302 303 303 301 299 299 298 297 297 297 297 296 297 300 300 298 299 300 300 299 299 297 296 296 297 297 297 298 297 297 297 297 297 297 297 297 297 296 295 294 294 294 293 296 298 298 297
329 328 327 326 326 324 322 320 318 316 315 312 309 306 305 304 303 303 303 301 300 299 297 298 297 296 297 296 297 301 302 300 300 300 300 300 300 299 299 298 297 297 297 297 297 297 297 297 298 300 301 301 301 300 297 294 294 294 293 294 296 296 295
329 327 326 326 325 323 321 319 317 315 314 312 310 307 306 305 302 302 302 302 300 298 297 298 297 296 296 296 297 301 302 301 300 298 298 299 299 299 299 299 297 296 297 297 297 297 297 296 298 301 303 303 303 302 299 295 293 294 293 293 294 294 294
328 327 326 325 324 322 320 318 316 315 314 312 310 308 306 304 302 301 302 302 300 298 297 297 296 296 296 295 297 300 300 299 297 297 296 296 296 296 297 297 297 296 297 297 297 297 297 296 297 300 303 303 302 302 299 295 294 294 293 294 295 295 296
328 327 326 325 322 320 318 317 316 315 313 312 310 308 306 304 302 302 304 303 300 297 297 297 296 297 296 295 296 298 298 297 297 296 295 295 295 295 296 296 297 297 297 297 297 297 297 296 297 300 302 302 301 300 298 295 294 294 295 297 298 297 297
328 327 326 324 321 319 318 317 316 314 313 311 310 308 307 305 303 303 304 303 300 297 297 297 297 297 297 296 296 295 297 299 298 296 294 294 295 295 296 296 297 297 297 297 297 297 296 296 297 299 301 301 301 300 297 294 295 296 298 300 299 298 298
328 327 326 324 321 318 317 316 315 314 312 311 310 308 307 306 306 306 304 301 298 297 297 297 297 296 296 297 295 295 298 301 299 295 294 294 295 295 295 296 296 297 297 297 297 297 296 296 297 297 298 300 300 298 296 294 295 298 300 300 299 299 298
327 326 326 324 320 317 316 315 314 313 312 310 309 308 307 307 306 305 302 298 297 298 298 297 297 296 296 296 295 296 300 302 300 297 296 295 296 296 295 295 296 296 296 297 297 297 297 296 296 296 296 297 297 296 294 294 296 299 300 299 299 299 299
326 326 325 321 317 316 315 314 313 312 310 309 308 307 306 304 303 300 298 297 297 297 297 297 296 295 295 295 295 297 301 302 301 299 299 298 298 298 297 297 296 295 296 297 296 296 297 296 296 296 296 296 295 294 294 295 297 299 300 299 299 299 300
325 325 323 319 315 314 314 313 312 311 310 309 307 304 301 300 298 298 297 297 297 297 297 297 296 295 295 295 294 297 300 302 301 300 300 300 300 301 301 300 298 296 295 296 296 296 296 296 296 296 295 295 295 294 294 296 298 299 299 299 299 300 300
324 324 323 319 315 314 313 313 313 311 310 307 303 300 299 298 298 298 298 297 297 297 297 296 296 296 295 295 294 296 299 301 300 300 301 301 301 301 302 302 300 297 295 296 296 296 296 296 296 296 296 295 295 294 296 298 298 299 299 299 300 301 301
323 322 322 319 317 315 315 314 313 310 307 303 299 299 299 299 299 299 298 298 298 297 297 296 296 295 295 295 294 295 297 299 299 300 302 302 302 302 302 302 299 296 295 295 296 296 296 296 296 296 296 295 294 295 297 298 299 299 300 300 300 301 301

ECMWFFLT1_850_thetae_138.txt.gz
Theta_e
335 334 333 334 333 334 333 331 331 333 334 334 334 334 333 333 332 333 332 330 327 324 319 316 316 314 313 313 310 307 306 306 307 306 304 304 305 308 311 311 309 311 315 319 322 320 317 316 313 311 311 312 312 309 304 303 305 305 304 303 303 303 302
335 335 334 334 334 334 332 330 332 334 334 334 333 333 333 332 332 331 331 329 325 320 317 315 314 313 312 310 306 304 304 304 305 305 304 304 304 304 304 304 304 304 306 314 319 318 316 314 314 313 313 313 314 311 305 304 305 305 305 303 302 303 302
335 335 334 334 334 334 332 331 332 334 334 333 333 332 332 330 329 329 329 326 321 317 315 314 313 312 309 305 304 304 304 304 304 304 304 304 304 304 303 303 303 303 303 307 312 314 314 314 312 312 312 312 312 310 306 305 305 305 304 303 302 302 301
335 334 333 334 334 333 331 331 332 334 333 333 332 331 330 329 328 328 327 322 317 315 314 313 312 309 305 303 304 304 303 304 304 304 303 303 303 303 303 303 303 303 302 303 307 310 313 315 313 310 310 312 311 309 306 304 304 304 304 303 302 302 301
334 333 333 333 333 331 330 331 332 333 333 332 330 328 328 328 328 328 324 319 316 315 313 313 309 305 303 303 303 303 304 303 303 303 303 303 303 303 302 303 302 302 302 302 303 306 311 314 314 311 310 311 310 308 306 304 304 304 304 303 302 302 301
334 334 332 331 331 330 330 331 333 333 332 330 328 328 328 329 329 326 320 317 315 313 313 310 306 303 303 303 303 303 303 303 303 303 303 302 302 302 302 302 302 301 301 301 301 302 306 310 313 312 310 310 310 307 305 304 304 303 303 303 301 301 301
334 333 332 331 330 330 329 331 333 332 330 328 327 329 329 329 327 322 318 316 314 313 312 307 303 303 303 303 303 303 302 303 303 302 302 302 302 301 301 301 301 301 300 301 301 300 302 306 310 312 311 310 309 308 305 304 304 303 303 304 303 301 301
334 334 333 331 330 329 330 332 332 332 330 327 327 329 329 328 325 320 317 315 313 312 309 304 302 302 302 302 303 302 302 302 302 302 302 302 301 301 301 301 301 300 300 300 300 300 301 303 307 311 313 312 310 309 307 305 304 303 303 303 303 302 301
334 334 333 330 329 330 331 332 332 331 330 329 329 329 328 327 324 321 317 314 312 309 305 302 302 302 302 302 302 302 302 302 301 302 301 301 301 301 300 300 300 300 300 300 300 300 300 301 304 308 311 311 311 311 309 306 304 303 302 303 303 302 302
333 333 331 329 330 331 332 332 331 330 330 329 329 328 327 325 324 320 316 312 310 307 303 302 302 301 302 302 302 302 302 301 301 301 301 301 301 300 300 300 300 300 300 300 300 300 300 299 300 302 304 307 309 310 309 308 306 303 302 304 304 303 302
332 331 330 330 331 332 332 331 330 330 329 328 327 327 325 325 322 318 314 311 309 305 302 302 301 301 301 301 302 302 301 301 301 301 301 300 300 300 300 300 300 300 299 299 300 300 300 300 299 299 300 302 304 307 308 308 307 305 303 303 304 304 302
332 330 331 332 332 332 331 331 330 330 328 326 326 325 324 325 322 315 312 311 307 303 301 301 301 301 301 301 301 301 301 301 301 300 300 300 300 300 300 299 299 299 299 299 300 300 300 299 300 301 300 300 301 303 306 306 307 306 304 303 304 305 303
331 330 331 332 333 332 331 330 330 329 328 327 325 325 325 323 318 313 311 308 304 302 301 301 301 301 301 301 301 301 301 300 300 300 300 300 300 299 300 300 299 299 299 299 299 300 300 299 300 301 301 300 299 300 302 303 305 305 304 303 304 304 303
331 330 331 332 333 331 329 329 329 329 328 326 325 325 322 318 314 311 309 306 302 301 301 300 300 300 300 301 301 300 300 300 300 300 299 299 299 299 299 299 300 300 299 300 300 300 301 301 301 300 300 299 299 299 299 300 302 303 303 304 304 304 303
331 331 332 332 332 329 328 329 328 327 326 324 323 322 317 313 311 310 307 303 301 300 300 300 300 300 300 300 300 300 300 300 299 299 299 299 299 299 299 299 299 300 300 300 300 300 301 302 302 300 299 299 298 299 299 300 302 303 303 304 304 303 303
331 331 332 332 330 329 328 329 328 326 325 322 320 318 314 311 310 309 305 301 300 300 299 300 300 300 300 300 300 300 300 299 299 299 299 299 299 299 299 299 299 300 300 300 300 300 300 301 301 300 299 299 298 298 299 301 303 303 304 304 304 303 302
332 332 333 331 329 328 329 328 327 326 325 322 318 314 312 310 309 307 303 300 299 299 299 299 300 300 300 300 300 300 299 299 299 299 299 299 299 299 299 299 299 300 300 299 299 299 299 299 299 299 299 299 298 298 299 302 303 303 304 304 303 302 302
332 333 332 330 329 329 329 328 327 327 326 321 316 313 310 309 308 305 301 300 299 299 299 299 300 300 299 300 300 299 299 299 299 299 299 299 299 299 299 299 299 300 299 299 299 299 299 298 298 298 298 298 298 298 299 301 303 303 303 303 303 301 301
332 332 331 329 329 329 328 327 327 326 324 318 313 311 309 307 306 303 300 299 299 299 299 299 299 299 299 299 299 299 298 299 299 299 299 298 298 298 299 299 299 300 300 299 299 299 298 298 298 298 298 298 298 298 298 299 301 303 303 303 302 301 300
333 332 331 329 329 329 328 327 326 326 323 318 312 309 309 307 305 303 300 299 299 299 299 299 299 299 299 299 299 299 298 299 299 298 298 298 298 298 299 299 300 300 299 299 299 299 298 298 298 298 298 298 298 298 297 297 299 301 303 303 302 301 300
333 331 330 330 329 328 328 326 325 325 325 322 316 310 308 307 305 303 301 300 300 299 299 299 299 299 298 298 298 299 299 299 299 298 299 298 298 298 299 299 300 299 299 299 298 298 298 298 298 297 298 298 297 297 297 296 296 299 302 303 301 300 299
332 331 330 330 329 329 327 326 325 325 324 324 320 311 308 307 305 304 303 301 301 300 300 299 299 298 298 298 298 298 299 299 298 299 299 298 298 299 299 299 299 299 299 298 298 298 297 298 297 297 297 297 297 297 296 296 295 296 299 302 301 300 299
332 331 330 329 329 329 327 325 325 325 324 324 319 312 309 308 305 304 304 303 302 301 300 300 299 299 298 298 298 299 299 299 298 298 298 298 298 298 298 299 299 299 298 298 298 298 297 297 297 297 297 297 297 297 296 296 295 295 296 298 300 300 298
332 330 329 329 329 328 326 325 325 324 323 322 318 313 310 308 306 305 305 304 303 302 300 300 299 299 299 299 299 298 298 298 299 299 298 298 298 298 298 299 299 298 298 298 298 297 297 297 297 297 297 297 296 296 296 295 295 295 294 295 297 298 296
331 330 329 329 329 328 326 325 325 324 323 321 317 313 311 309 307 306 306 305 304 302 301 300 299 298 298 299 298 298 298 298 299 298 298 297 297 297 298 298 299 299 298 298 297 297 297 297 296 296 297 297 297 296 296 295 295 295 295 294 295 296 295
329 329 329 328 328 327 325 325 325 323 321 319 316 313 311 309 308 307 306 306 305 302 301 299 299 299 298 298 299 298 298 298 298 298 298 297 297 297 298 299 298 298 298 298 297 297 297 297 297 298 299 300 300 299 297 296 295 294 294 294 294 295 295
328 328 328 328 328 327 325 325 325 323 321 318 316 314 311 309 308 307 307 307 305 302 300 299 298 298 298 298 299 299 299 299 299 299 299 298 297 297 298 298 298 298 298 298 297 297 297 297 298 300 302 302 303 302 300 297 295 294 294 295 296 296 296
328 329 328 328 328 327 325 325 324 321 319 318 317 314 311 309 308 307 307 307 305 302 300 299 298 298 298 298 299 300 300 299 299 299 299 298 297 297 297 298 298 298 298 298 297 297 297 297 299 302 303 303 303 302 301 299 296 294 295 296 298 298 297
329 329 328 328 328 327 324 324 323 320 318 317 316 313 311 309 308 307 307 307 305 301 300 300 299 298 298 298 298 299 299 298 299 300 299 298 297 298 298 298 298 298 298 297 297 297 296 297 299 302 303 303 302 301 301 299 296 295 296 298 299 299 298
330 329 328 328 328 326 324 323 322 320 318 317 315 313 311 310 308 307 307 307 305 301 300 300 298 297 297 297 297 298 298 299 300 300 299 298 297 298 298 299 299 298 298 297 297 297 297 296 298 302 303 303 302 302 300 297 295 296 297 299 300 299 299
330 329 328 328 328 326 325 323 321 319 318 316 314 312 311 310 309 307 307 307 305 302 300 299 298 297 297 297 297 298 299 300 300 299 299 298 297 297 298 298 298 298 298 297 297 297 297 296 297 299 301 301 302 302 299 295 295 297 298 299 300 299 299
330 330 328 327 327 326 325 323 321 319 317 315 313 312 311 310 309 308 308 307 305 302 300 299 297 297 296 296 297 298 299 300 300 299 299 298 297 297 297 297 298 298 298 297 297 297 297 296 296 297 298 298 299 299 296 295 296 298 299 299 299 299 300
330 330 328 327 327 325 322 321 319 318 316 314 313 312 311 310 309 308 308 307 304 302 300 298 297 297 296 296 296 297 298 299 299 298 297 296 296 297 296 296 297 297 297 297 297 297 297 296 296 296 296 296 297 296 295 296 297 298 299 300 299 300 300
329 329 328 327 326 324 320 319 318 317 315 313 313 312 311 309 308 307 306 305 302 300 300 299 297 297 296 296 296 297 298 299 300 299 297 295 295 296 296 296 296 297 297 297 297 297 297 296 296 296 296 296 295 295 295 296 298 299 300 300 300 300 301
328 328 328 327 325 322 319 318 317 316 314 313 312 311 310 309 308 306 305 304 302 300 299 299 298 297 296 296 296 297 298 300 301 300 298 296 295 296 296 296 296 296 296 296 296 297 296 296 296 296 296 296 295 295 295 297 299 299 299 300 300 300 301
328 328 327 326 323 320 318 318 316 315 314 313 312 311 310 309 308 307 305 303 300 299 298 298 298 297 296 296 295 296 298 300 301 301 300 300 299 298 299 299 298 298 297 297 296 297 296 296 296 296 296 296 295 295 296 298 299 299 300 300 300 301 301
327 327 326 323 321 319 318 317 316 315 314 313 312 311 310 309 308 306 304 301 298 297 298 298 297 297 296 296 295 296 297 300 301 301 301 301 301 300 301 302 301 301 300 298 296 296 296 296 296 296 296 296 295 295 296 299 300 299 300 301 301 301 301

ECMWFFLT1_850_thetae_141.txt.gz
Theta_e
335 335 335 335 334 334 333 332 332 331 331 330 329 329 329 330 330 330 329 330 331 330 330 329 323 317 315 314 314 316 317 317 314 307 304 307 313 318 323 325 324 323 321 319 318 318 317 314 311 310 312 311 306 304 303 303 303 303 302 300 301 301 299
336 335 335 334 334 333 333 332 332 331 331 330 330 330 331 331 331 331 331 331 331 330 329 325 319 315 315 314 313 314 315 314 311 307 305 305 308 313 318 318 319 320 319 318 317 317 316 313 311 311 313 311 307 304 304 304 303 303 302 301 300 300 299
336 335 334 334 333 333 333 333 332 331 331 331 331 332 332 332 332 331 332 332 331 330 326 320 316 315 314 314 312 310 309 308 308 307 305 304 305 308 311 311 313 314 315 316 317 316 314 311 310 311 312 311 306 304 304 304 304 303 303 302 299 299 299
334 334 334 334 333 333 333 333 332 331 331 332 332 333 333 333 332 332 332 331 330 328 322 316 315 314 314 313 310 306 305 304 306 307 304 304 304 305 305 305 305 306 307 311 315 315 312 309 309 310 311 309 306 304 304 303 303 303 303 301 299 299 299
333 333 333 334 333 333 333 333 331 330 332 333 333 333 333 332 332 332 330 329 328 324 318 315 314 314 314 311 306 304 304 304 305 305 304 304 304 303 304 303 303 303 303 305 309 312 310 309 309 310 310 307 304 304 303 303 303 303 303 303 300 299 299
332 332 332 333 334 333 333 333 331 330 332 333 334 333 333 333 332 330 328 327 326 321 316 315 314 313 312 307 304 304 303 303 304 304 303 303 303 303 303 303 303 303 303 302 303 306 309 309 309 310 310 306 304 304 304 303 303 303 304 304 302 300 299
332 332 333 333 333 333 333 333 330 330 332 333 333 333 332 332 330 328 327 327 323 318 315 314 313 311 307 304 303 304 303 303 303 303 303 303 303 303 303 303 303 302 302 302 301 302 306 308 308 309 309 306 304 304 304 303 302 302 303 303 301 301 299
332 333 333 333 333 333 333 331 330 330 332 333 333 332 330 329 328 328 327 323 318 316 314 313 312 308 304 303 303 303 303 303 303 303 303 303 303 303 302 302 302 302 301 301 301 301 303 306 307 309 309 307 305 305 304 303 300 300 302 302 301 301 300
332 332 333 333 332 332 331 330 330 332 332 333 332 330 328 327 328 329 325 319 315 314 313 313 313 307 303 303 303 303 303 303 303 303 302 302 302 302 302 302 301 301 301 301 301 301 301 305 308 308 308 308 307 306 305 305 303 300 301 301 302 302 300
332 332 333 333 332 331 330 329 331 332 332 331 329 327 326 328 329 327 321 316 314 313 313 314 312 305 302 302 302 302 302 302 302 302 302 302 302 301 301 301 301 301 300 300 300 300 301 304 307 309 310 309 308 308 307 307 306 302 301 302 303 302 300
332 333 334 333 332 331 330 330 331 332 332 331 328 326 327 328 328 323 317 314 314 313 313 312 307 302 302 302 302 302 302 302 302 302 302 301 301 301 301 300 300 300 300 300 300 300 300 301 304 306 308 308 309 310 308 306 306 303 301 303 303 303 300
331 333 334 333 333 332 330 330 331 332 332 331 329 328 328 329 326 320 316 314 316 317 312 306 302 302 302 302 302 302 302 302 302 301 301 301 300 300 300 300 300 300 300 300 299 300 300 300 300 301 302 302 304 308 307 307 306 302 302 303 303 303 300
331 332 333 333 333 331 330 331 332 332 331 330 330 329 328 327 323 319 316 314 317 317 310 302 301 302 301 301 301 301 301 301 301 301 301 300 300 300 300 300 300 299 299 300 299 300 300 300 300 300 300 299 300 303 304 305 304 302 302 303 303 302 299
331 332 333 332 331 330 331 332 332 331 330 329 329 327 326 324 320 317 314 313 314 314 307 302 302 301 301 301 301 301 301 301 301 301 300 300 300 300 300 300 300 300 300 300 300 300 299 300 300 299 299 299 299 300 301 302 302 302 302 302 302 301 298
332 332 332 331 331 331 332 332 331 330 329 328 327 324 323 321 319 316 313 312 313 310 303 302 301 301 301 301 301 301 301 301 301 300 300 300 300 300 300 300 300 300 300 300 300 300 300 300 299 299 299 299 298 299 300 300 300 302 302 302 301 299 297
332 332 331 331 331 332 332 331 331 330 329 328 325 323 321 319 318 315 312 312 312 306 302 301 301 301 300 300 300 301 300 300 300 300 300 300 299 299 299 300 300 300 300 300 300 300 300 299 299 299 299 298 298 298 299 300 301 302 302 302 301 298 296
332 332 331 331 331 332 332 331 330 329 329 328 326 323 320 318 317 314 312 311 309 304 301 301 301 300 300 300 300 300 300 300 300 300 300 299 299 299 299 299 300 300 300 300 300 300 300 299 299 299 299 298 298 298 299 300 301 302 303 303 301 298 296
331 332 331 331 331 332 331 330 329 329 328 327 325 322 320 318 316 313 311 309 307 303 301 301 301 300 300 300 300 300 300 300 299 299 299 299 299 299 299 299 300 300 300 300 300 299 299 299 299 298 298 298 298 298 298 299 301 303 303 302 300 297 295
331 332 331 330 331 332 331 328 328 329 327 324 322 321 321 319 315 312 310 308 305 302 301 301 301 300 300 300 300 300 299 299 299 299 299 299 299 299 299 299 300 300 300 300 299 300 299 299 299 298 298 298 297 297 297 298 300 302 302 302 299 296 295
330 331 331 331 331 331 330 328 327 328 327 325 323 323 322 319 313 310 309 306 304 302 301 301 300 300 300 299 299 299 299 299 299 299 299 299 299 299 299 299 300 300 300 299 299 299 299 299 298 298 298 297 297 297 296 296 298 300 301 300 297 295 294
331 330 331 331 332 330 329 328 328 328 327 325 324 323 321 317 312 309 308 305 303 301 301 300 300 300 299 299 299 299 299 299 299 299 299 299 299 299 299 299 300 300 299 299 299 299 299 298 298 298 297 297 296 296 296 296 296 297 298 297 296 294 294
332 331 332 332 331 329 328 328 327 327 326 325 324 322 318 313 311 309 307 305 302 301 300 300 300 299 299 299 299 299 299 299 299 299 299 299 299 299 299 299 300 299 299 299 299 299 298 298 298 297 297 297 296 296 296 295 295 295 295 295 295 294 294
332 332 332 331 330 329 328 327 327 327 326 325 325 322 317 311 309 309 307 305 303 301 300 300 299 299 299 299 299 299 299 299 299 299 299 299 299 299 299 299 299 299 299 299 298 298 298 298 298 297 297 297 296 296 295 295 295 295 295 295 295 295 295
332 332 332 331 330 329 328 327 327 326 326 325 324 323 319 313 309 308 307 305 304 302 300 300 299 299 299 299 299 299 299 299 299 299 299 299 299 299 299 299 299 299 299 299 299 298 298 298 298 297 297 297 296 296 295 295 295 295 295 296 296 296 296
330 331 332 330 329 329 328 327 326 326 325 325 324 323 321 315 310 308 307 306 304 303 301 300 300 300 299 299 299 299 299 299 299 299 299 299 298 298 299 299 300 300 299 299 299 298 298 298 297 297 297 297 297 297 297 296 295 294 296 297 297 297 297
329 330 331 330 329 329 328 327 326 325 325 325 324 323 321 318 312 308 307 306 305 304 302 301 301 300 300 299 299 299 299 299 299 299 299 299 298 298 299 300 300 299 299 299 298 298 298 298 298 298 298 298 299 299 299 298 295 295 296 297 297 297 298
328 330 330 329 329 329 328 327 326 326 325 325 324 323 322 320 315 310 307 306 306 304 303 303 303 302 301 300 299 299 299 299 299 299 298 298 298 298 299 299 299 299 299 299 298 298 298 297 297 298 299 299 299 300 300 299 297 295 296 298 298 298 298
328 329 330 329 329 329 328 327 326 326 325 325 324 323 322 321 317 313 309 307 306 306 305 304 304 303 302 301 300 300 300 299 298 298 298 298 298 298 299 299 299 299 299 299 298 298 298 297 297 298 299 299 300 300 299 299 297 295 296 298 298 299 299
328 329 329 329 329 329 328 327 326 326 325 324 324 323 322 320 318 315 311 308 307 307 306 305 305 304 303 302 301 301 300 299 298 298 298 298 297 298 298 298 299 299 299 299 298 298 298 297 297 298 299 300 301 300 300 299 297 296 296 298 299 299 299
328 329 329 329 329 328 328 327 326 326 325 325 324 323 322 320 317 315 312 309 308 308 307 306 305 305 304 303 302 301 300 299 298 298 298 298 298 297 297 298 299 299 299 298 298 298 297 297 297 298 298 300 302 301 301 300 298 296 297 298 299 299 300
327 328 329 328 328 328 327 326 326 326 325 325 324 322 321 319 316 314 312 309 308 308 307 307 306 306 305 303 302 302 300 299 298 298 298 298 298 298 297 298 298 298 298 298 298 298 297 297 297 297 297 298 300 300 300 299 297 296 297 299 299 299 300
327 327 328 328 327 327 327 327 327 326 325 325 323 321 320 318 316 314 311 309 309 309 308 307 307 306 305 303 302 302 301 299 299 299 300 300 299 298 297 297 298 298 298 298 298 298 297 297 297 297 296 297 297 297 297 296 295 297 298 299 299 300 301
326 327 327 327 327 327 327 327 327 326 325 324 322 320 318 317 316 314 311 309 309 309 307 306 305 305 304 302 302 302 301 300 299 300 301 300 299 299 298 297 298 298 298 298 298 298 297 297 297 297 296 296 296 296 295 295 296 297 299 299 300 300 301
327 327 328 328 328 327 327 327 326 325 324 323 320 318 316 316 315 313 311 310 309 309 307 304 303 303 302 301 300 301 301 299 299 299 300 300 299 300 299 298 298 298 298 297 298 298 297 297 297 297 296 296 296 296 295 295 297 298 299 299 300 300 301
327 327 328 328 328 327 327 326 325 324 323 321 318 317 316 316 314 313 312 310 309 308 307 305 302 301 300 299 299 300 300 299 299 300 300 300 299 299 299 298 297 297 297 297 297 297 297 297 297 297 296 296 296 296 295 296 297 298 299 300 300 300 301
328 328 328 327 327 326 326 324 323 323 321 319 318 316 315 315 314 312 312 311 309 308 307 305 302 300 299 298 298 299 299 299 300 300 300 299 299 298 297 296 296 296 296 296 297 297 297 297 297 297 296 296 296 296 295 296 297 298 299 300 301 301 300
329 329 328 327 325 325 324 323 322 321 320 319 318 317 315 314 313 313 312 311 310 309 308 305 302 300 299 298 298 299 299 299 299 299 299 299 298 297 296 295 296 297 297 296 296 296 297 297 297 297 296 296 296 296 295 296 297 298 299 300 301 301 300

ECMWFFLT1_850_thetae_144.txt.gz
Theta_e
336 335 334 335 335 334 334 334 335 335 333 332 331 330 330 330 329 327 327 328 330 331 330 331 331 331 330 325 319 317 317 317 319 321 316 310 314 323 326 328 329 329 328 325 319 315 311 309 310 309 306 304 304 303 302 302 302 302 302 300 298 298 299
336 334 334 334 335 334 334 334 335 334 332 331 331 330 330 330 329 328 328 329 330 330 330 331 331 330 330 324 317 315 316 315 317 319 316 308 308 317 323 326 328 328 326 323 319 317 314 311 310 309 307 305 304 304 303 302 302 302 302 300 298 298 299
335 335 334 334 334 334 334 334 334 333 332 331 330 331 330 330 329 329 330 331 330 330 331 331 330 329 328 322 316 315 315 314 315 317 314 307 305 311 317 320 322 323 323 322 318 316 314 311 310 310 307 305 304 304 303 302 302 302 303 301 298 298 299
334 334 334 334 334 334 334 334 333 332 332 331 330 330 330 330 329 330 331 332 331 331 331 331 330 327 324 319 316 314 314 313 314 313 311 307 304 307 312 314 316 318 320 319 316 314 314 310 310 309 306 305 305 303 302 302 303 302 303 301 299 298 299
334 334 334 335 335 334 334 334 333 332 332 331 331 330 330 330 330 331 332 332 332 332 331 330 328 323 318 316 314 313 313 312 310 307 308 307 304 305 308 310 312 313 314 314 313 313 314 310 308 308 305 304 304 302 302 303 303 303 303 301 299 299 299
334 334 335 335 335 334 333 333 333 332 332 332 331 330 330 330 331 332 332 332 332 331 329 328 324 319 315 314 314 313 311 308 305 304 306 306 303 304 305 305 306 306 307 309 311 313 313 310 308 307 304 304 303 302 302 303 303 303 303 302 299 299 299
335 335 335 335 334 334 333 333 333 333 332 331 330 330 330 331 332 333 333 332 331 328 327 325 320 316 314 314 313 310 307 304 303 304 305 304 303 303 303 303 303 303 303 305 309 312 311 309 308 307 304 303 303 303 303 303 303 303 302 301 300 300 300
334 335 335 334 333 333 333 333 333 333 332 331 330 330 331 333 333 333 332 331 329 327 326 323 317 314 314 313 310 306 304 303 304 303 304 303 303 303 303 303 303 303 303 303 305 308 310 309 308 307 306 304 303 303 302 302 301 301 302 301 300 300 300
334 334 334 334 333 333 333 333 333 333 332 331 330 331 332 333 333 333 331 329 327 326 324 320 315 313 312 311 308 304 304 304 303 303 303 303 303 303 303 302 302 302 302 302 302 305 308 309 308 308 306 305 304 303 303 303 301 300 301 302 301 301 300
334 334 334 333 333 333 334 333 333 333 332 331 331 331 333 333 332 331 329 328 327 324 320 316 313 312 310 309 306 304 303 303 303 303 302 303 302 302 302 302 302 302 301 302 301 302 305 308 309 308 306 305 305 305 304 305 304 301 300 301 302 302 300
335 334 333 333 333 333 333 333 333 332 331 330 331 332 332 333 331 328 327 328 326 320 314 313 313 312 309 306 304 303 303 303 303 302 302 302 302 301 302 301 301 301 301 301 301 301 302 306 308 308 306 305 306 306 306 306 305 301 301 302 302 302 300
334 334 333 333 332 332 333 332 332 331 330 330 331 332 332 332 329 326 328 328 322 315 313 313 314 312 308 304 303 303 303 302 302 302 302 301 301 301 301 301 301 301 301 301 301 301 301 303 307 308 308 308 308 308 308 306 303 301 301 302 301 301 300
334 334 333 332 332 333 332 331 330 329 329 331 332 332 331 330 327 326 328 326 318 312 314 315 313 311 308 304 303 302 303 302 301 302 301 301 301 301 301 301 301 301 300 300 300 300 300 301 304 307 308 307 305 305 305 305 302 300 301 302 301 301 299
334 334 333 332 332 333 332 331 330 330 330 331 332 332 331 329 327 328 328 323 315 313 316 317 314 310 306 303 302 302 302 302 301 301 301 301 301 300 300 300 300 300 300 300 300 300 300 300 301 302 302 301 300 300 301 302 301 301 301 301 301 300 298
333 333 332 332 333 333 333 332 330 330 330 331 331 331 331 329 328 328 326 320 314 314 316 315 312 309 305 302 302 302 301 301 301 301 301 301 300 300 300 300 300 300 300 300 300 300 300 300 299 299 299 299 299 299 299 300 301 301 302 301 301 300 297
333 332 332 331 332 333 333 332 330 330 331 331 331 331 330 329 328 326 324 319 314 313 314 312 309 305 303 302 302 302 301 301 300 300 300 300 300 300 300 300 300 300 300 300 300 300 300 299 299 299 299 299 299 298 299 299 300 301 302 301 301 299 295
333 332 331 331 332 333 333 331 330 330 331 331 331 330 329 328 326 323 321 318 314 314 313 310 306 303 302 302 302 301 301 301 300 300 300 300 300 300 300 300 299 300 300 300 300 300 299 299 299 299 299 299 298 298 298 299 299 301 302 302 300 297 294
332 331 330 330 332 332 331 330 330 331 332 331 330 329 328 326 323 321 319 317 315 314 312 308 304 302 301 301 301 301 301 300 300 300 300 300 300 300 299 299 300 300 300 300 300 300 299 299 299 298 298 298 298 297 298 298 299 301 301 301 299 296 294
331 330 330 331 332 331 330 330 331 331 331 330 329 329 327 324 321 320 318 315 313 311 309 306 303 302 301 301 301 300 300 300 300 299 299 299 299 299 299 299 299 300 300 300 299 299 299 299 298 298 298 297 297 297 297 298 299 300 300 299 297 295 295
331 330 330 331 331 330 330 330 331 331 331 330 329 328 327 323 320 318 316 314 311 309 307 304 302 301 301 301 300 300 300 300 299 299 299 299 299 299 299 299 299 300 300 300 299 299 299 299 298 298 297 297 297 296 296 297 298 298 298 297 295 295 295
331 330 330 331 331 330 330 330 331 331 330 329 329 328 326 322 319 316 314 311 310 308 305 303 301 301 301 300 300 300 300 299 299 299 299 299 299 299 299 299 299 300 300 299 299 299 299 298 298 298 297 297 297 296 296 296 296 296 296 295 295 295 295
331 330 331 331 331 330 330 330 331 330 329 328 328 326 323 320 318 316 314 311 309 307 305 303 301 300 300 300 300 300 299 299 299 299 299 299 299 299 299 299 299 300 300 299 299 299 298 298 298 298 297 297 296 296 296 296 296 296 295 295 295 295 295
331 331 331 331 331 331 330 331 330 329 328 328 326 324 322 320 318 316 314 312 309 307 305 302 301 300 300 300 300 299 300 299 299 299 299 299 299 299 299 299 299 300 299 299 299 298 298 298 298 298 298 297 296 296 296 296 296 296 296 296 296 296 296
331 331 331 331 331 330 331 331 330 328 327 327 325 323 321 320 318 315 313 311 309 307 304 301 300 299 299 299 299 299 299 299 299 299 299 299 299 299 299 299 299 300 299 299 299 298 298 298 298 298 298 297 297 296 296 295 296 296 297 297 297 297 297
331 331 331 330 331 331 331 330 329 328 327 326 324 323 322 320 318 315 312 309 308 306 304 301 300 300 300 300 299 299 300 299 299 299 299 299 299 299 299 299 299 300 299 299 299 298 298 298 298 298 298 297 297 296 296 295 295 296 297 297 297 298 298
330 331 332 331 331 331 331 330 328 328 327 326 325 325 324 322 319 317 313 310 308 306 305 303 301 301 300 300 300 300 300 300 299 299 299 299 299 298 298 299 299 299 299 298 298 298 298 298 298 297 297 298 297 297 296 296 295 296 297 297 298 298 298
330 331 331 331 330 330 330 329 328 327 326 325 325 325 324 324 322 319 316 312 308 307 306 305 303 302 302 301 301 300 300 300 300 299 299 299 298 298 298 298 299 299 299 299 299 299 298 298 298 297 298 298 298 297 297 296 296 295 296 298 298 298 299
330 330 331 330 329 329 329 329 328 327 326 325 325 325 325 324 322 320 318 314 310 307 306 306 305 304 303 302 302 301 301 301 300 300 299 299 299 298 298 298 299 299 299 299 299 298 298 297 297 297 298 298 298 298 297 297 296 296 296 297 298 298 299
330 330 330 329 328 328 329 329 328 327 327 325 325 325 324 323 322 320 319 317 313 309 307 307 306 305 304 304 303 302 302 302 302 301 300 299 299 298 298 298 298 299 299 299 298 298 297 297 297 297 298 298 298 298 298 297 296 296 296 297 298 299 299
330 330 329 328 328 328 328 329 328 328 327 326 325 324 323 322 321 320 320 319 317 313 310 308 307 306 305 305 304 304 304 303 302 301 300 300 299 298 298 297 298 298 299 299 298 298 298 297 297 297 297 298 298 297 297 297 296 295 296 298 299 299 300
330 330 328 328 328 328 329 329 328 328 327 326 325 324 323 322 321 321 321 321 320 317 313 310 308 306 306 305 305 305 304 304 303 302 300 299 299 298 297 297 297 298 298 298 298 298 297 298 297 297 297 297 297 296 296 296 296 295 296 298 299 299 300
330 330 328 327 328 328 329 328 328 327 326 326 325 324 323 322 322 322 321 320 318 316 314 311 309 307 307 306 306 306 305 304 303 302 300 299 299 298 297 297 297 297 298 298 298 298 298 297 297 297 297 297 297 296 296 296 295 295 297 298 299 299 300
331 330 327 326 327 328 328 328 327 326 326 325 325 324 323 323 323 322 321 319 317 314 313 311 309 308 308 307 306 306 305 304 303 301 299 299 299 298 298 297 297 297 297 298 298 298 298 297 297 297 297 296 296 296 296 296 295 295 297 298 299 299 300
331 330 326 325 327 327 327 328 327 326 326 326 325 324 323 323 323 322 320 318 315 313 312 311 310 310 308 307 306 306 305 304 303 301 300 299 298 298 298 298 298 297 297 297 298 298 298 297 297 297 297 296 296 296 296 296 295 296 297 298 298 300 300
330 328 326 325 326 326 326 326 326 326 326 325 324 323 323 323 323 322 320 317 314 313 312 311 311 310 308 306 306 306 306 304 303 303 302 300 298 298 298 298 299 299 297 297 298 298 297 297 297 297 297 297 296 296 296 295 295 296 297 298 299 300 300
329 327 326 325 326 326 326 325 325 325 325 324 323 322 322 323 323 322 319 317 315 314 312 311 311 310 308 306 305 305 305 305 304 304 304 301 298 298 298 299 300 300 299 298 298 298 297 297 297 297 297 296 296 296 296 296 295 296 297 298 299 300 300
328 327 326 325 325 326 325 325 324 323 324 324 323 322 322 323 322 321 319 318 316 314 312 311 310 310 308 306 304 304 305 305 304 304 304 302 300 299 300 300 300 300 300 299 298 297 297 297 297 297 296 296 296 296 296 296 295 295 296 298 299 300 300